Location: Borderline Observatory
(42.7345°N, 72.8696°W)
Time: 08:19:00
(UTC-05:00)

Daily predictions for brighter satellites

Satellite Brightness Start Highest point End
(mag) Time Altitude Azimuth Time Altitude Azimuth Time Altitude Azimuth
Cosmos 1437 2.7 16:47:39 10° S 16:50:47 63° E 16:53:56 10° NNE
AQUARIUS 4.5 16:48:36 10° SE 16:52:50 43° ENE 16:57:07 10° N
ERS-2 3.7 16:50:53 10° ESE 16:53:15 17° ENE 16:55:39 10° NNE
ALOS 3.8 16:52:50 10° E 16:55:23 15° ENE 16:57:54 10° NNE
Cosmos 1486 Rocket 4.3 16:53:27 10° S 16:58:26 48° ESE 17:03:27 10° NNE
Cosmos 1782 4.1 16:55:24 10° SE 16:58:31 22° E 17:01:39 10° NE
Cosmos 1844 Rocket 3.6 16:55:00 10° SW 17:00:27 50° WNW 17:05:55 10° NNE
Cosmos 1816 Rocket 4.5 16:55:51 10° N 17:02:00 81° E 17:08:10 10° S
SMAP 3.1 16:57:51 10° SSE 17:02:23 57° ENE 17:06:57 10° N
SJ-12 4.2 16:58:30 10° S 17:02:39 75° WSW 17:06:49 10° NNW
CZ-4C R/B 3.7 16:59:09 10° NNW 17:05:02 28° NE 17:11:30 10° E
CENTAUR R/B 3.3 17:00:01 10° WSW 17:05:59 52° NW 17:12:49 10° NNE
IDEFIX/ARIANE 42P 4.3 17:04:29 10° SSW 17:09:18 37° W 17:14:07 10° NNW
Cosmos 1725 Rocket 4.3 17:03:45 10° SSW 17:10:01 73° W 17:16:18 10° N
Cosmos 1633 3.4 17:07:54 10° NNE 17:11:10 29° ENE 17:14:25 10° SE
Cosmos 1782 Rocket 4.3 17:07:30 10° NNE 17:11:23 30° ENE 17:15:14 10° SE
BREEZE-M R/B 2.1 17:11:03 10° WNW 17:13:36 72° NNE 17:17:30 10° ESE
USA 116 4.2 17:09:36 10° NNE 17:13:48 42° E 17:17:30 10° S
COSMO-SKYMED 1 3.5 17:14:37 10° NE 17:18:21 27° E 17:22:03 10° SSE
YAOGAN 1 2.9 17:14:42 10° SE 17:18:48 44° ENE 17:22:56 10° N
CSL-04 Debris 4.3 17:16:08 10° SSE 17:21:34 84° WSW 17:27:00 10° NNW
SPOT 3 Rocket 4.2 17:19:26 10° SE 17:24:03 33° ENE 17:28:41 10° N
BREEZE-M DEB (TANK) 2.4 17:26:45 10° SW 17:28:44 39° SE 17:29:58 22° E
Cosmos 1833 Rocket 2.8 17:23:37 10° NNW 17:29:08 53° ENE 17:34:37 10° SE
Meteor 1-14 Rocket 4.4 17:29:09 10° NNW 17:34:49 75° W 17:40:21 10° S
Cosmos 2297 3.9 17:31:08 10° S 17:36:39 52° ESE 17:41:49 12° NE
Cosmos 2034 Rocket 4.5 17:31:40 10° SSE 17:37:25 38° E 17:43:11 10° NNE
Cosmos 2221 Rocket 3.7 17:35:16 10° SSE 17:39:30 49° E 17:43:46 10° NNE
Cosmos 1703 Rocket 3.5 17:35:39 10° S 17:40:06 81° E 17:44:35 10° N
Cosmos 2278 Rocket 2.6 17:34:30 10° SW 17:40:08 64° WNW 17:45:48 10° NNE
CORIOLIS 4.4 17:35:26 10° S 17:40:52 74° WSW 17:46:20 10° NNW
NOAA 12 4.3 17:44:46 10° SE 17:49:52 49° ENE 17:54:58 10° N
IRS-1A Rocket 4.5 17:44:36 10° S 17:50:25 78° WSW 17:56:09 10° NNW
Meteor 1-11 Rocket 4.1 17:46:20 10° N 17:51:55 43° ENE 17:57:20 10° SE
Meteor 1-28 Rocket 3.9 17:49:23 10° N 17:53:00 52° WNW 17:56:37 10° SSW
CZ-2C R/B 4.0 17:50:04 10° N 17:54:32 67° WNW 17:59:02 10° SSW
Cosmos 44 Rocket 3.3 17:50:09 10° NNW 17:54:57 56° NE 17:58:41 17° SE
Okean 2 Rocket 3.1 17:51:51 10° N 17:56:21 60° E 18:00:49 10° SSE
Cosmos 1606 3.1 17:57:03 10° SSW 18:00:47 62° W 18:04:32 10° N
Cosmos 1441 Rocket 3.5 17:57:32 10° SSE 18:01:19 46° E 18:01:48 43° ENE
Cosmos 292 Rocket 3.7 17:57:31 10° NNW 18:02:15 63° ENE 18:06:57 10° SSE
Cosmos 405 3.0 18:00:41 10° N 18:04:14 55° ENE 18:07:45 10° SSE
Cosmos 1464 Rocket 3.9 17:58:40 10° S 18:04:46 83° E 18:10:58 10° N
Landsat 4 4.4 18:01:32 10° N 18:05:15 55° WNW 18:08:58 10° SSW
SKYMED 2 3.5 18:02:11 10° NNE 18:06:32 89° WNW 18:10:53 10° SSW
Lacrosse 5 3.8 18:03:47 10° NW 18:06:54 16° N 18:08:26 14° NNE
COSMOS 2455 4.5 18:03:09 10° WSW 18:08:21 30° NW 18:13:35 10° NNE
CZ-4 R/B 3.2 18:05:40 10° SSW 18:09:08 32° W 18:12:38 10° NNW
EO 1 Del DPAF 3.3 18:08:14 19° N 18:10:57 79° WNW 18:14:46 10° SSW
MOS 1 4.4 18:05:50 10° SSE 18:11:33 79° WSW 18:17:17 10° NNW
Cosmos 540 Rocket 3.8 18:08:13 10° NNW 18:13:21 66° WSW 18:18:27 10° S
USA 234 3.3 18:11:19 31° ENE 18:14:32 61° SE 18:20:58 10° SW
Cosmos 968 Rocket 3.5 18:13:41 10° S 18:18:41 53° ESE 18:19:33 47° ENE
Cosmos 44 3.2 18:14:17 10° NW 18:19:00 83° WSW 18:22:41 18° SSE
Cosmos 1503 Rocket 4.4 18:14:04 10° SSW 18:19:17 63° WNW 18:23:43 14° NNE
Cosmos 2082 Rocket 2.6 18:13:46 10° NNW 18:19:24 64° WSW 18:24:58 10° S
Meteor 2-6 Rocket 4.4 18:17:41 10° SSW 18:23:06 70° WNW 18:28:42 10° N
Meteor 2-20 Rocket 4.3 18:19:32 10° N 18:25:37 67° E 18:31:39 10° SSE
ERS-2 3.8 18:23:17 10° SSW 18:26:39 34° W 18:30:03 10° NNW
Cosmos 1602 4.0 18:23:58 10° NNW 18:27:47 66° W 18:31:36 10° S
BREEZE-M DEB (TANK) 3.1 18:25:45 10° NW 18:27:36 39° NNW 18:27:36 39° NNW
Okean 1-7 4.2 18:24:35 10° SSW 18:28:45 42° WNW 18:32:58 10° N
ALOS 2.6 18:27:37 10° S 18:32:15 66° WSW 18:36:56 10° NNW
DMSP B5D1-3 4.5 18:28:50 19° NNE 18:32:39 86° WNW 18:37:47 10° SSW
Cosmos 405 Rocket 3.5 18:32:01 10° SSW 18:35:42 50° WNW 18:36:33 40° NW
FengYun 1-2 T 4.0 18:39:44 26° SSE 18:42:55 77° ENE 18:48:30 10° N
CZ-4C R/B 2.8 18:47:12 10° NW 18:54:26 87° SW 18:58:04 36° SSE
Meteor 1-5 Rocket 4.1 18:50:01 10° N 18:54:41 69° NNW 18:54:41 69° NNW
Meteor 1-27 Rocket 4.3 18:49:57 10° SSW 18:55:46 60° WNW 19:01:40 10° N
USA 229 DEB 3.7 18:59:13 10° SSW 19:05:13 65° SSE 19:05:13 65° SSE
USA 229 3.7 18:59:19 10° SSW 19:05:17 64° SSE 19:05:17 64° SSE
Cosmos 2369 Rocket 4.1 19:10:08 10° S 19:11:27 17° S 19:11:27 17° S
USA 234 4.2 19:58:41 43° WNW 19:58:41 43° WNW 20:03:37 10° W
